Location: Bartlett
(35.2045°N, 89.8740°W)
Time: 16:37:49
(UTC+00:00)

Transit 4A - Pass Details

Date: 20 December 2025
Orbit: 867 x 974 km, 66.8° (Epoch: 14 January)

Event Time Altitude Azimuth Distance (km) Brightness Sun altitude
Rises 09:59:53 0° 315° (NW) 3,559 - -36.6°
Reaches altitude 10° 10:03:05 10° 298° (WNW) 2,633 - -36.0°
Maximum altitude 10:07:16 19° 255° (WSW) 2,059 - -35.1°
Drops below altitude 10° 10:11:30 10° 212° (SSW) 2,670 - -34.3°
Sets 10:14:48 0° 195° (SSW) 3,627 - -33.6°
